• En España
  • Lista de países
  • Para 7 días
  • Temperatura del agua
  • Mapa Satelital
  • El tiempo en el mapa
  • Informadores
  • user-avatar
    Iniciar sesión

    Tiempo cada hora Connaught

    Hoy, 19 Septiembre, Miércoles

    Tiempo Temperatura Precipitaciones Viento Presión Humedad
    00:00 +9°C° 0.1 mm 6 mps 734 mmHg 85%
    01:00 +9°C° 0.1 mm 6 mps 733 mmHg 86%
    02:00 +9°C° 0.1 mm 6 mps 733 mmHg 87%
    03:00 +10°C° 2.3 mm 8 mps 731 mmHg 89%
    04:00 +10°C° 2.3 mm 9 mps 729 mmHg 90%
    05:00 +11°C° 2.3 mm 11 mps 727 mmHg 92%
    06:00 +9°C° 0.6 mm 13 mps 727 mmHg 86%
    07:00 +9°C° 0.6 mm 14 mps 727 mmHg 79%
    08:00 +8°C° 0.6 mm 15 mps 728 mmHg 73%
    09:00 +8°C° 0.1 mm 14 mps 730 mmHg 70%
    10:00 +9°C° 0.1 mm 13 mps 732 mmHg 67%
    11:00 +9°C° 0.1 mm 12 mps 734 mmHg 64%
    12:00 +9°C° 0.1 mm 12 mps 735 mmHg 62%
    13:00 +9°C° 0.1 mm 11 mps 735 mmHg 61%
    14:00 +9°C° 0.1 mm 11 mps 736 mmHg 60%
    15:00 +9°C° 0.1 mm 10 mps 736 mmHg 63%
    16:00 +8°C° 0.1 mm 10 mps 737 mmHg 66%
    17:00 +8°C° 0.1 mm 9 mps 737 mmHg 70%
    18:00 +7°C° 0.1 mm 8 mps 738 mmHg 71%
    19:00 +8°C° 0.1 mm 7 mps 738 mmHg 73%
    20:00 +8°C° 0.1 mm 7 mps 739 mmHg 75%
    21:00 +7°C° 0 mm 6 mps 739 mmHg 76%
    22:00 +7°C° 0 mm 6 mps 739 mmHg 76%
    23:00 +7°C° 0 mm 6 mps 739 mmHg 77%

    Mañana, 20 Septiembre, Jueves

    Tiempo Temperatura Precipitaciones Viento Presión Humedad
    00:00 +7°C° 0 mm 5 mps 739 mmHg 79%
    01:00 +7°C° 0 mm 5 mps 739 mmHg 80%
    02:00 +6°C° 0 mm 5 mps 740 mmHg 81%
    03:00 +6°C° 0 mm 4 mps 740 mmHg 83%
    04:00 +6°C° 0 mm 4 mps 739 mmHg 85%
    05:00 +5°C° 0 mm 4 mps 739 mmHg 87%
    06:00 +7°C° 0 mm 3 mps 739 mmHg 84%
    07:00 +8°C° 0 mm 3 mps 740 mmHg 82%
    08:00 +9°C° 0 mm 3 mps 740 mmHg 79%
    09:00 +10°C° 0.1 mm 3 mps 739 mmHg 78%
    10:00 +10°C° 0.1 mm 3 mps 739 mmHg 78%
    11:00 +11°C° 0.1 mm 3 mps 739 mmHg 77%
    12:00 +10°C° 1 mm 2 mps 738 mmHg 82%
    13:00 +9°C° 1 mm 2 mps 737 mmHg 87%
    14:00 +9°C° 1 mm 1 mps 736 mmHg 92%
    15:00 +8°C° 1.1 mm 2 mps 736 mmHg 93%
    16:00 +7°C° 1.1 mm 2 mps 735 mmHg 94%
    17:00 +7°C° 1.1 mm 2 mps 735 mmHg 95%
    18:00 +7°C° 0.4 mm 3 mps 735 mmHg 94%
    19:00 +7°C° 0.4 mm 3 mps 735 mmHg 93%
    20:00 +5°C° 0.4 mm 3 mps 736 mmHg 92%
    21:00 +5°C° 0.1 mm 4 mps 736 mmHg 91%
    22:00 +5°C° 0.1 mm 4 mps 736 mmHg 90%
    23:00 +5°C° 0.1 mm 4 mps 736 mmHg 89%

    Pasado mañana, 21 Septiembre, Viernes

    Tiempo Temperatura Precipitaciones Viento Presión Humedad
    00:00 +5°C° 0.2 mm 4 mps 736 mmHg 88%
    01:00 +5°C° 0.2 mm 5 mps 737 mmHg 88%
    02:00 +5°C° 0.2 mm 5 mps 737 mmHg 87%
    03:00 +5°C° 0.1 mm 5 mps 737 mmHg 87%
    04:00 +5°C° 0.1 mm 5 mps 738 mmHg 87%
    05:00 +5°C° 0.1 mm 4 mps 738 mmHg 87%
    06:00 +6°C° 0.2 mm 5 mps 739 mmHg 85%
    07:00 +7°C° 0.2 mm 5 mps 739 mmHg 83%
    08:00 +8°C° 0.2 mm 5 mps 740 mmHg 80%
    09:00 +9°C° 0.3 mm 5 mps 740 mmHg 77%
    10:00 +10°C° 0.3 mm 6 mps 741 mmHg 75%
    11:00 +10°C° 0.3 mm 6 mps 741 mmHg 72%
    12:00 +10°C° 0.2 mm 6 mps 742 mmHg 71%
    13:00 +10°C° 0.2 mm 6 mps 742 mmHg 70%
    14:00 +11°C° 0.2 mm 7 mps 743 mmHg 69%
    15:00 +10°C° 0.1 mm 6 mps 743 mmHg 72%
    16:00 +9°C° 0.1 mm 5 mps 744 mmHg 75%
    17:00 +8°C° 0.1 mm 5 mps 744 mmHg 78%
    18:00 +7°C° 0.1 mm 5 mps 745 mmHg 80%
    19:00 +6°C° 0.1 mm 5 mps 746 mmHg 82%
    20:00 +5°C° 0.1 mm 4 mps 746 mmHg 83%
    21:00 +5°C° 0 mm 4 mps 747 mmHg 83%
    22:00 +5°C° 0 mm 4 mps 747 mmHg 83%
    23:00 +5°C° 0 mm 4 mps 748 mmHg 83%

    22 Septiembre, Sábado

    Tiempo Temperatura Precipitaciones Viento Presión Humedad
    00:00 +5°C° 0 mm 4 mps 748 mmHg 83%
    01:00 +5°C° 0 mm 4 mps 748 mmHg 84%
    02:00 +5°C° 0 mm 4 mps 749 mmHg 84%
    03:00 +4°C° 0 mm 4 mps 749 mmHg 84%
    04:00 +4°C° 0 mm 4 mps 749 mmHg 84%
    05:00 +4°C° 0 mm 4 mps 750 mmHg 85%
    06:00 +6°C° 0 mm 4 mps 750 mmHg 81%
    07:00 +7°C° 0 mm 4 mps 750 mmHg 77%
    08:00 +8°C° 0 mm 4 mps 750 mmHg 73%
    09:00 +10°C° 0.1 mm 4 mps 750 mmHg 70%
    10:00 +10°C° 0.1 mm 3 mps 750 mmHg 67%
    11:00 +11°C° 0.1 mm 3 mps 750 mmHg 64%
    12:00 +11°C° 0.1 mm 3 mps 750 mmHg 65%
    13:00 +12°C° 0.1 mm 2 mps 749 mmHg 66%
    14:00 +12°C° 0.1 mm 2 mps 749 mmHg 66%
    15:00 +10°C° 0.3 mm 2 mps 748 mmHg 73%
    16:00 +9°C° 0.3 mm 2 mps 747 mmHg 80%
    17:00 +8°C° 0.3 mm 2 mps 746 mmHg 86%
    18:00 +7°C° 2.5 mm 3 mps 745 mmHg 90%
    19:00 +5°C° 2.5 mm 4 mps 743 mmHg 93%
    20:00 +5°C° 2.5 mm 5 mps 741 mmHg 96%
    21:00 +3°C° 3.7 mm 7 mps 739 mmHg 95%
    22:00 +2°C° 3.7 mm 9 mps 737 mmHg 93%
    23:00 +2°C° 3.7 mm 11 mps 734 mmHg 92%

    23 Septiembre, Domingo

    Tiempo Temperatura Precipitaciones Viento Presión Humedad
    00:00 +2°C° 2.4 mm 11 mps 732 mmHg 92%
    01:00 +3°C° 2.4 mm 12 mps 730 mmHg 92%
    02:00 +3°C° 2.4 mm 12 mps 728 mmHg 92%
    03:00 +3°C° 3.9 mm 13 mps 729 mmHg 91%
    04:00 +3°C° 3.9 mm 13 mps 729 mmHg 90%
    05:00 +3°C° 3.9 mm 14 mps 730 mmHg 89%
    06:00 +4°C° 0.7 mm 13 mps 732 mmHg 88%
    07:00 +4°C° 0.7 mm 13 mps 734 mmHg 86%
    08:00 +4°C° 0.7 mm 12 mps 736 mmHg 84%
    09:00 +5°C° 0.1 mm 12 mps 738 mmHg 80%
    10:00 +7°C° 0.1 mm 13 mps 739 mmHg 75%
    11:00 +9°C° 0.1 mm 13 mps 741 mmHg 70%
    12:00 +9°C° 0.1 mm 13 mps 742 mmHg 69%
    13:00 +9°C° 0.1 mm 12 mps 744 mmHg 69%
    14:00 +9°C° 0.1 mm 12 mps 745 mmHg 68%
    15:00 +8°C° 0 mm 11 mps 746 mmHg 69%
    16:00 +7°C° 0 mm 10 mps 748 mmHg 70%
    17:00 +7°C° 0 mm 8 mps 749 mmHg 71%
    18:00 +6°C° 0 mm 7 mps 750 mmHg 72%
    19:00 +6°C° 0 mm 7 mps 751 mmHg 74%
    20:00 +5°C° 0 mm 6 mps 752 mmHg 76%
    21:00 +6°C° 0 mm 5 mps 753 mmHg 79%
    22:00 +6°C° 0 mm 5 mps 754 mmHg 82%
    23:00 +5°C° 0 mm 4 mps 755 mmHg 84%

    24 Septiembre, Lunes

    Tiempo Temperatura Precipitaciones Viento Presión Humedad
    00:00 +5°C° 0 mm 4 mps 755 mmHg 86%
    01:00 +5°C° 0 mm 3 mps 755 mmHg 88%
    02:00 +4°C° 0 mm 3 mps 756 mmHg 90%
    03:00 +4°C° 0 mm 3 mps 756 mmHg 90%
    04:00 +4°C° 0 mm 3 mps 756 mmHg 90%
    05:00 +4°C° 0 mm 3 mps 757 mmHg 90%
    06:00 +7°C° 0 mm 2 mps 757 mmHg 85%
    07:00 +8°C° 0 mm 2 mps 757 mmHg 81%
    08:00 +9°C° 0 mm 2 mps 758 mmHg 76%
    09:00 +10°C° 0 mm 3 mps 758 mmHg 72%
    10:00 +11°C° 0 mm 3 mps 758 mmHg 69%
    11:00 +11°C° 0 mm 4 mps 758 mmHg 65%
    12:00 +11°C° 0 mm 4 mps 757 mmHg 67%
    13:00 +10°C° 0 mm 5 mps 757 mmHg 68%
    14:00 +10°C° 0 mm 5 mps 757 mmHg 70%
    15:00 +10°C° 0 mm 5 mps 756 mmHg 74%
    16:00 +9°C° 0 mm 5 mps 756 mmHg 78%
    17:00 +9°C° 0 mm 5 mps 755 mmHg 82%
    18:00 +9°C° 0 mm 5 mps 755 mmHg 83%
    19:00 +9°C° 0 mm 6 mps 754 mmHg 84%
    20:00 +9°C° 0 mm 6 mps 754 mmHg 85%
    21:00 +9°C° 0.4 mm 6 mps 753 mmHg 88%
    22:00 +9°C° 0.4 mm 7 mps 752 mmHg 90%
    23:00 +9°C° 0.4 mm 7 mps 751 mmHg 93%
    Mostrar más